Flag for U.S.A. Weather past 2 weeks in Warren, Michigan, U.S.A.

Now
68 °F

Passing clouds.


Feels Like: 68 °F
Forecast: 58 / 78 °F
Wind: 7 mph from Northwest

Location: Detroit City Airport

Current Time: May 28, 2015 at 12:40:12 AM

Latest Report: May 27, 2015 at 11:53 PM


Visibility: 10 mi

Pressure: 30.07 "Hg

Humidity: 65%

Dew point: 56 °F

Location of WarrenLocation

Historic Weather in Warren — Graph

°F

Warren temperature yesterday

Maximum temperature yesterday: 79 °F (at 1:00 PM)
Minimum temperature yesterday: 67 °F (at 6:53 AM)
Average temperature yesterday: 72 °F

Past Weeks' High & Low Weather Summary

 TemperatureHumidityPressure
High83 °F (May 18, 2:53 PM)97% (May 17, 8:04 AM)30.50 "Hg (May 17, 8:04 AM)
Low39 °F (May 14, 3:53 AM)22% (May 22, 6:53 PM)29.84 "Hg (May 26, 6:53 PM)
Average62 °F61%30.12 "Hg
* Reported May 12 10:53 PM — May 27 10:53 PM, Warren, Weather by CustomWeather, © 2015

Note: Actual official high and low records may vary slightly from our data, if they occured in-between our weather recording intervals... More about our weather records

Advertising

Warren weather history for previous 24 hours

 ConditionsComfort  
Time TempWeatherWind HumidityBarometerVisibility
10:53 PM
Wed, May 27
69 °FPassing clouds.7 mph66%30.05 "Hg10 mi
9:53 PM71 °FSunny.10 mph63%30.02 "Hg10 mi
8:53 PM73 °FSunny.7 mph55%29.98 "Hg10 mi
7:53 PM73 °FPassing clouds.14 mph62%29.97 "Hg10 mi
6:53 PM73 °FSunny.8 mph64%29.96 "Hg10 mi
5:53 PM73 °FScattered clouds.8 mph62%29.96 "Hg10 mi
4:53 PM74 °FBroken clouds.12 mph69%29.96 "Hg10 mi
4:03 PM75 °FThundershowers. Sunny.14 mph66%29.96 "Hg10 mi
3:53 PM74 °FSunny.15 mph69%29.95 "Hg10 mi
2:53 PM70 °FSunny.13 mph73%29.93 "Hg10 mi
1:53 PM73 °FThunderstorms. Broken clouds.13 mph79%29.94 "Hg10 mi
1:00 PM79 °FThundershowers. Scattered clouds.16 mph58%29.96 "Hg10 mi
11:53 AM77 °FPassing clouds.16 mph60%29.96 "Hg10 mi
10:53 AM75 °FSunny.18 mph62%29.95 "Hg10 mi
9:53 AM73 °FPassing clouds.13 mph69%29.95 "Hg10 mi
8:53 AM71 °FSunny.15 mph73%29.96 "Hg10 mi
7:53 AM69 °FSunny.17 mph76%29.95 "Hg10 mi
6:53 AM67 °FClear.10 mph85%29.95 "Hg10 mi
5:53 AM68 °FClear.13 mph84%29.93 "Hg10 mi
Weather by CustomWeather, © 2015

See weather overviewHow to use our weather pages